EW7603 Weather Reports


time (UTC)temp
C
wind
direction
speed
KPH
gust
KPH
rain 1hr
cm
rain 24hr
cm
rain mn
cm
humidity
%
barometer
mb
20260506044510 8 141 8.0 0.0 0.00 0.00 0.00 91 1007.8
20260506043008 8 134 8.0 0.0 0.00 0.00 0.00 91 1007.9
20260506041513 8 132 9.7 0.0 0.00 0.00 0.00 90 1008.1
20260506040004 8 168 6.4 0.0 0.00 0.00 0.05 89 1008.0
20260506034504 8 186 8.0 0.0 0.00 0.00 0.05 88 1008.3
20260506033002 8 178 4.8 0.0 0.00 0.00 0.05 87 1008.3
20260506031607 8 157 4.8 0.0 0.00 0.00 0.05 87 1008.3
20260506030059 8 162 6.4 0.0 0.00 0.00 0.05 86 1008.0
20260506024559 9 148 6.4 0.0 0.00 0.00 0.05 86 1007.8
20260506023100 9 143 6.4 0.0 0.00 0.00 0.05 85 1007.8
20260506021558 9 148 4.8 0.0 0.00 0.00 0.05 85 1007.9
20260506020054 10 120 4.8 0.0 0.00 0.00 0.05 82 1007.9
20260506014556 10 116 4.8 0.0 0.00 0.00 0.05 80 1007.9
20260506013052 10 138 4.8 0.0 0.00 0.00 0.05 78 1007.8
20260506011551 10 123 3.2 0.0 0.00 0.00 0.05 79 1007.8
20260506010050 9 98 3.2 0.0 0.00 0.00 0.05 78 1007.7
20260506004554 10 80 1.6 0.0 0.00 0.00 0.05 78 1007.6
20260506003049 10 97 1.6 0.0 0.00 0.00 0.05 77 1007.5
20260506001608 10 97 1.6 0.0 0.00 0.00 0.05 77 1007.2
20260506000049 10 73 1.6 0.0 0.00 0.00 0.05 76 1007.2
20260505234551 10 61 3.2 0.0 0.00 0.00 0.05 75 1006.9
20260505233054 10 288 0.0 0.0 0.00 0.00 0.05 74 1006.9
20260505231552 10 287 0.0 0.0 0.00 0.00 0.05 73 1007.1
20260505230046 10 288 0.0 0.0 0.00 0.00 0.05 72 1007.1
20260505224548 10 288 0.0 0.0 0.00 0.00 0.05 73 1007.1
20260505223054 10 288 0.0 0.0 0.00 0.00 0.05 73 1007.1
20260505221551 10 280 0.0 0.0 0.00 0.00 0.05 73 1007.1
20260505220047 10 280 1.6 0.0 0.00 0.00 0.05 74 1007.2
20260505214558 10 280 1.6 0.0 0.00 0.00 0.05 75 1007.1
20260505213055 10 280 1.6 0.0 0.00 0.00 0.05 74 1007.3
20260505211543 10 275 3.2 0.0 0.00 0.00 0.05 75 1007.3
20260505210043 10 274 3.2 0.0 0.00 0.00 0.05 75 1007.2
20260505204542 10 261 6.4 0.0 0.00 0.00 0.05 75 1007.2
20260505203046 10 267 4.8 0.0 0.00 0.00 0.05 75 1007.4
20260505201550 10 262 6.4 0.0 0.00 0.00 0.05 75 1007.6
20260505200040 10 265 6.4 0.0 0.00 0.00 0.05 76 1007.3
20260505194541 10 247 4.8 0.0 0.00 0.00 0.05 78 1007.2
20260505193045 10 209 6.4 0.0 0.00 0.00 0.05 76 1006.9
20260505191548 10 192 4.8 0.0 0.00 0.00 0.05 76 1007.0
20260505190037 10 221 6.4 0.0 0.00 0.00 0.05 71 1006.8
20260505184531 11 228 4.8 0.0 0.00 0.00 0.00 66 1006.7
20260505183045 12 266 9.7 0.0 0.00 0.00 0.00 60 1006.5
20260505181530 12 266 8.0 0.0 0.00 0.00 0.00 55 1006.2
20260505180036 13 210 6.4 0.0 0.00 0.00 0.00 52 1006.2
20260505174536 13 292 8.0 0.0 0.00 0.00 0.00 49 1006.0
20260505173037 13 247 8.0 0.0 0.00 0.00 0.00 47 1005.6
20260505171533 14 242 8.0 0.0 0.00 0.00 0.00 48 1005.3
20260505170026 15 245 9.7 0.0 0.00 0.00 0.00 47 1005.0
20260505164534 15 266 8.0 0.0 0.00 0.00 0.00 48 1005.0
20260505163027 15 323 4.8 0.0 0.00 0.00 0.00 47 1005.1
20260505161525 15 282 6.4 0.0 0.00 0.00 0.00 48 1005.0
20260505153028 15 288 9.7 0.0 0.00 0.00 0.00 51 1004.9
20260505151522 16 269 9.7 0.0 0.00 0.00 0.00 48 1003.8
20260505124505 11 234 8.0 0.0 0.00 0.00 0.00 74 1002.2
20260505123001 11 293 6.4 0.0 0.00 0.00 0.00 71 1002.0
20260505121557 12 216 11.3 0.0 0.00 0.00 0.00 71 1002.0
20260505120055 14 282 16.1 0.0 0.00 0.00 0.00 72 1001.4
20260505114559 14 260 14.5 0.0 0.00 0.00 0.00 75 1000.5
20260505113053 14 230 14.5 0.0 0.00 0.00 0.00 74 1000.3
20260505111554 14 222 9.7 0.0 0.00 0.00 0.00 74 1000.2
20260505101546 15 229 17.7 0.0 0.00 0.00 0.00 72 999.5
20260505100043 15 226 16.1 0.0 0.00 0.00 0.00 73 999.3
20260505094539 15 203 11.3 0.0 0.00 0.00 0.00 72 999.3
20260505093044 15 207 11.3 0.0 0.00 0.00 0.00 72 999.1
20260505091542 15 198 14.5 0.0 0.00 0.00 0.00 70 998.8
20260505090046 15 203 11.3 0.0 0.00 0.00 0.00 70 998.7
20260505084533 15 176 11.3 0.0 0.00 0.00 0.00 69 998.5
20260505083010 16 168 11.3 0.0 0.00 0.00 0.00 68 998.0
20260505081505 16 219 12.9 0.0 0.00 0.00 0.00 66 998.1
20260505080004 16 204 14.5 0.0 0.00 0.00 0.00 67 998.0
20260505074503 16 233 9.7 0.0 0.00 0.00 0.00 67 997.9
20260505073007 16 180 12.9 0.0 0.00 0.00 0.00 66 998.0
20260505071502 16 170 16.1 0.0 0.00 0.00 0.00 66 998.3
20260505070000 15 201 11.3 0.0 0.00 0.00 0.00 67 998.6
20260505064600 15 183 9.7 0.0 0.00 0.00 0.00 69 998.6
20260505063102 15 162 11.3 0.0 0.00 0.00 0.00 69 998.8
20260505061602 15 219 11.3 0.0 0.00 0.00 0.00 68 999.1
20260505060056 15 190 11.3 0.0 0.00 0.00 0.00 68 999.2